Location: Newark
(43.4306°N, 0.3089°E)
Time: 23:15:04
(UTC+00:00)

Vanguard 3 - Pass Details

Date: 30 August 2019
Orbit: 508 x 3262 km, 33.3° (Epoch: 18 October)

Event Time Altitude Azimuth Distance (km) Brightness Sun altitude
Rises 19:48:38 0° 265° (W) 3,930 11.7 -12.9°
Reaches altitude 10° 19:54:26 10° 227° (SW) 2,329 9.8 -13.8°
Maximum altitude 19:55:20 10° 217° (SW) 2,213 9.5 -14.0°
Drops below altitude 10° 19:56:11 10° 207° (SSW) 2,160 9.3 -14.1°
Enters shadow 19:58:51 - 177° (S) 2,388 9.3 -14.5°
Sets 20:00:22 0° 164° (SSE) 2,740 - -14.8°
